AirNav   ATP
 
 1340 users online  

25WN Little Plum Creek Airport
Pepin, Wisconsin, USA


FAA INFORMATION EFFECTIVE 09 NOVEMBER 2017

Location

FAA Identifier: 25WN
Lat/Long: 44-31-43.3833N / 092-07-13.2278W
44-31.723055N / 092-07.220463W
44.5287176 / -92.1203411
(estimated)
Elevation: 830 ft. / 253 m (estimated)
From city: 5 miles N of PEPIN, WI
Time zone: UTC -6 (UTC -5 during Daylight Saving Time)
Zip code: 54759

Airport Operations

Airport use: Private use. Permission required prior to landing
Activation date: 03/2007
Control tower: no
ARTCC: MINNEAPOLIS CENTER
FSS: GREEN BAY FLIGHT SERVICE STATION
Attendance: UNATNDD
Wind indicator: yes
Segmented circle: no

Airport Communications

WX AWOS-3 at RGK (16 nm W): 119.25 (715-594-3763)

Nearby radio navigation aids

VOR radial/distance  VOR name  Freq  Var
ONAr326/32.5WINONA VOR/DME111.4001E
EAUr227/35.2EAU CLAIRE VORTAC112.9004E

Airport Services

Runway Information

Runway 9/27

Dimensions: 2640 x 100 ft. / 805 x 30 m
Surface: turf
RUNWAY 9  RUNWAY 27
Traffic pattern: leftleft

Airport Ownership and Management from official FAA records

Ownership: Privately-owned
Owner: LITTLE PLUM CREEK AIRPARK INC.
11253 ST CROIX TRAIL SOUTH
HASTING, MN 55033
Phone 651-437-8852
Manager: RICHARD G. FREITAG
W9257 PLUM VALLEY RD
PEPIN, WI 54759

Airport Operational Statistics

Aircraft based on the field: 1
Single engine airplanes: 1
    

Instrument Procedures

There are no published instrument procedures at 25WN.

Some nearby airports with instrument procedures:

KRGK - Red Wing Regional Airport (16 nm W)
KLUM - Menomonie Municipal Airport-Score Field (24 nm NE)
3T3 - Boyceville Municipal Airport (31 nm N)
KONA - Winona Municipal Airport-Max Conrad Field (32 nm SE)
KEAU - Chippewa Valley Regional Airport (34 nm NE)
 
Loc | Ops | Rwys | IFR | FBO | Links
Com | Nav | Svcs | Stats | Notes


 
Area around 25WN (Little Plum Creek Airport)
 
Road maps at: MapQuest Bing Google
 
Aerial photo
No photo
 
Sectional chart

 
Airport distance calculator
Flying to Little Plum Creek Airport? Find the distance to fly.

From to 25WN

Sunrise and sunset
Times for 20-Nov-2017
 Local
(UTC-6)
 Zulu
(UTC)
Morning civil twilight06:4112:41
Sunrise07:1313:13
Sunset16:3622:36
Evening civil twilight17:0823:08

Current date and time
Zulu (UTC)  20-Nov-2017 21:07:44
Local (UTC-6)  20-Nov-2017 15:07:44
 
METAR
KRGK 
15nm W 
202055Z AUTO 20003KT 10SM CLR 09/M02 A2946 RMK AO2
KLUM 
24nm NE 
202055Z AUTO 17010G14KT 10SM CLR 08/M01 A2946 RMK AO2 T00841009
TAF
KEAU 
34nm NE 
201720Z 2018/2118 17010KT P6SM BKN250 FM202300 20009KT P6SM BKN200 FM210400 23009KT P6SM SCT250 FM210900 28014G22KT P6SM BKN050
KRST 
41nm SW 
202003Z 2020/2118 20018G25KT P6SM BKN250 FM210600 27012KT P6SM SCT250 FM210900 30015G23KT P6SM BKN200 FM211200 31019G29KT P6SM BKN030 FM211500 31022G32KT P6SM BKN150
KRNH 
41nm NW 
201720Z 2018/2118 19010KT P6SM BKN200 FM210100 22009KT P6SM BKN200 FM210500 26011KT P6SM SCT250 FM210900 29016G25KT P6SM BKN050
NOTAMs
Click for the latest NOTAMs
NOTAMs are issued by the DoD/FAA and will open in a separate window not controlled by AirNav.

 

 
 

Would you like to see your business listed on this page?

 If your business provides an interesting product or service to pilots, flight crews, aircraft, or users of the Little Plum Creek Airport, you should consider listing it here.  To start the listing process, click on the button below
 
Add a business
 

Other Pages about Little Plum Creek Airport

Update a link
 
Copyright © AirNav, LLC. All rights reserved. Privacy Policy  Contact